[[{"header":{"parameterUnit":"m.s-1","parameterCategory":1,"la1":30.2991,"la2":30.254,"lo1":-89.0895,"lo2":-89.0444,"dy":0.0017,"dx":0.0017,"nx":28,"ny":28,"refTime":"2025-04-23T09:00:00:Z","depth":0,"parameterNumber":2,"parameterNumberName":"U-component_of_WINDS"},"data":[0,0,0,0,0,0,0,0,0,0,0,0,0,0,0,0,0,0,0,0,0,0,0,0,0,0,0,0,0,0,0,0,0,0,0,0,0,0,0,0,0,0,0,0,0,0,0,0,0,0,0,0,0,0,0,0,0,0,-3.7095,-3.7095,0,-3.7098,-3.7098,-3.7098,-3.705,-3.7049,-3.7048,-3.7046,-3.7049,-3.705,-3.7052,0,0,0,0,0,0,0,0,0,0,0,0,0,-3.7047,-3.7049,-3.7095,-3.7095,-3.7095,-3.7098,-3.7098,-3.7098,-3.7051,-3.7049,-3.7047,-3.7046,-3.7049,-3.705,-3.7052,0,0,0,0,0,0,0,0,0,0,0,0,0,-3.7061,-3.7049,-3.7095,-3.7071,-3.7069,-3.7098,-3.7098,-3.7098,-3.7051,-3.7049,-3.7047,-3.7045,-3.7048,-3.705,-3.7052,-3.7103,0,0,-3.7058,-3.7059,0,0,0,0,0,0,0,0,-3.706,-3.7063,-3.7075,-3.7073,-3.7071,-3.7072,-3.7082,-3.71,-3.7051,-3.7058,-3.7046,-3.7044,-3.7058,-3.7059,-3.7064,-3.7103,-3.7103,-3.7058,-3.7059,-3.706,-3.706,0,0,0,0,0,0,0,-3.706,-3.7062,-3.7096,-3.7075,-3.7073,-3.7061,-3.7061,-3.7085,-3.7069,-3.7057,-3.7054,-3.7055,-3.7057,-3.7062,-3.7064,-3.7103,-3.7058,-3.706,-3.7061,-3.7061,-3.7184,-3.7186,0,0,0,0,0,0,-3.7062,-3.7062,-3.7096,-3.7096,-3.7061,-3.7063,-3.7063,-3.7073,-3.7068,-3.7066,-3.7056,-3.7053,-3.706,-3.7061,-3.7064,-3.7122,-3.706,-3.7062,-3.7063,-3.7182,-3.7184,-3.7187,0,0,0,0,0,0,-3.7061,-3.7065,-3.7096,-3.7078,-3.7081,-3.7066,-3.7078,-3.7075,-3.708,-3.7068,-3.7065,-3.7065,-3.7058,-3.7061,-3.7093,-3.7121,-3.7062,-3.7064,-3.7179,-3.7183,-3.7186,-3.724,0,0,0,0,0,0,-3.706,-3.7065,-3.7084,-3.7079,-3.7082,-3.7125,-3.708,-3.7076,-3.7083,-3.7078,-3.7075,-3.7073,-3.7057,-3.7091,-3.7095,-3.7123,-3.7066,-3.7177,-3.7181,-3.7185,-3.7236,-3.7245,-3.7252,0,0,0,0,0,-3.7058,-3.7099,-3.7085,-3.7089,-3.7105,-3.7127,-3.7129,-3.711,-3.7086,-3.7105,-3.7097,-3.7073,-3.7119,-3.7095,-3.7099,-3.7128,-3.7175,-3.718,-3.7184,-3.7232,-3.7243,-3.7252,0,0,0,0,0,0,-3.7107,-3.7098,-3.7082,-3.7123,-3.7126,-3.7119,-3.7142,-3.7123,-3.7133,-3.7127,-3.7104,-3.7104,-3.714,-3.7138,-3.7111,-3.7177,-3.7142,-3.7148,-3.7177,-3.7187,-3.7196,-3.7194,-3.7067,0,0,0,0,0,-3.7122,-3.7141,-3.7132,-3.7168,-3.7171,-3.7157,-3.7165,-3.7151,-3.7153,-3.7154,-3.7149,-3.7152,-3.7167,-3.7178,-3.7191,-3.7236,-3.7234,-3.7258,-3.7267,-3.7274,-3.7278,-3.7302,-3.7312,-3.7202,-3.7202,-3.7202,0,0,-3.7154,-3.7151,-3.7164,-3.7178,-3.7179,-3.7198,-3.7158,-3.718,-3.7194,-3.7158,-3.7187,-3.7185,-3.7187,-3.7226,-3.7243,-3.7225,-3.7309,-3.728,-3.7286,-3.7286,-3.7308,-3.7318,-3.7328,-3.7205,-3.7205,-3.7204,0,0,-3.7221,-3.7222,-3.7252,-3.7254,-3.7257,-3.7247,-3.7255,-3.7252,-3.7248,-3.7278,-3.7251,-3.7269,-3.7295,-3.7297,-3.7302,-3.7374,-3.7351,-3.7379,-3.7422,-3.7445,-3.7454,-3.7462,-3.7486,-3.7495,-3.7384,-3.7385,-3.7385,0,-3.726,-3.7288,-3.727,-3.7294,-3.7301,-3.727,-3.7301,-3.7304,-3.7311,-3.7316,-3.7297,-3.733,-3.7329,-3.7368,-3.7386,-3.7392,-3.7399,-3.7378,-3.7454,-3.7462,-3.7469,-3.7492,-3.7501,-3.7388,-3.7387,-3.7387,-3.7387,0,-3.7335,-3.7356,-3.738,-3.7388,-3.7398,-3.7425,-3.7411,-3.7424,-3.741,-3.7403,-3.7434,-3.7433,-3.7445,-3.7454,-3.744,-3.7492,-3.7481,-3.7459,-3.7422,-3.7483,-3.7504,-3.7512,-3.7392,-3.7391,-3.739,-3.7389,0,0,-3.743,-3.7429,-3.7438,-3.7442,-3.7444,-3.7459,-3.7486,-3.7499,-3.751,-3.7516,-3.7537,-3.7562,-3.7542,-3.7547,-3.7534,-3.7555,-3.7611,-3.753,-3.753,-3.7544,-3.7667,-3.7682,-3.7693,-3.7597,-3.7599,-3.76,-3.7666,0,-3.7494,-3.7539,-3.7525,-3.757,-3.7589,-3.7561,-3.7585,-3.7589,-3.7584,-3.7599,-3.7593,-3.761,-3.7583,-3.7586,-3.7606,-3.76,-3.7635,-3.7595,-3.7616,-3.7617,-3.7614,-3.7704,-3.772,-3.7782,-3.7675,-3.7676,-3.7677,0,-3.7574,-3.7585,-3.7632,-3.7632,-3.764,-3.7661,-3.7672,-3.7687,-3.7692,-3.7686,-3.7694,-3.7677,-3.7703,-3.767,-3.7705,-3.7679,-3.7687,-3.7686,-3.7688,-3.7687,-3.7649,-3.7704,-3.7801,-3.781,-3.769,-3.7689,-3.7688,0,-3.7637,-3.7663,-3.7695,-3.7699,-3.77,-3.7716,-3.7717,-3.7719,-3.7729,-3.7739,-3.7745,-3.7758,-3.7765,-3.7776,-3.7762,-3.7739,-3.78,-3.7765,-3.7796,-3.7796,-3.7807,-3.7806,-3.7905,-3.7817,-3.7816,-3.7816,-3.7816,0,-3.7708,-3.7738,-3.7723,-3.7742,-3.7775,-3.7759,-3.7792,-3.7791,-3.7794,-3.7812,-3.7791,-3.7808,-3.7791,-3.7808,-3.7798,-3.7829,-3.7833,-3.7829,-3.7825,-3.7829,-3.783,-3.7832,-3.7827,-3.7819,-3.7818,-3.7818,-3.7817,0,-3.7782,-3.7773,-3.7806,-3.7805,-3.7806,-3.783,-3.7829,-3.7847,-3.7842,-3.7866,-3.7871,-3.7862,-3.7881,-3.787,-3.7888,-3.7882,-3.7921,-3.7913,-3.792,-3.7917,-3.7947,-3.7944,-3.805,-3.8062,-3.7967,-3.7968,-3.7969,0,-3.7827,-3.785,-3.7852,-3.7863,-3.7866,-3.7885,-3.7894,-3.788,-3.7891,-3.7899,-3.7916,-3.7933,-3.7946,-3.7977,-3.7972,-3.7986,-3.7977,-3.8013,-3.7979,-3.7982,-3.7975,-3.7973,-3.7975,-3.8019,-3.802,-3.8021,-3.8022,0,-3.7908,-3.7903,-3.7918,-3.7932,-3.7945,-3.7955,-3.7963,-3.7974,-3.796,-3.7974,-3.7993,-3.8003,-3.8023,-3.804,-3.8052,-3.8053,-3.8035,-3.8034,-3.8041,-3.8044,-3.8046,-3.8044,-3.7937,-3.803,-3.8029,-3.8029,-3.8028,-3.8028,-3.7967,-3.7986,-3.7991,-3.8009,-3.8014,-3.8023,-3.804,-3.8038,-3.8054,-3.8069,-3.806,-3.8083,-3.8088,-3.8103,-3.8107,-3.8124,-3.811,-3.8121,-3.8123,-3.8126,-3.8129,-3.8046,-3.8127,-3.8127,-3.8126,-3.8126,-3.8126,0,-3.8045,-3.8048,-3.8065,-3.8078,-3.8092,-3.8076,-3.8085,-3.8098,-3.8118,-3.8125,-3.8138,-3.8161,-3.8177,-3.8175,-3.8191,-3.8205,-3.8197,-3.8209,-3.8207,-3.8207,-3.8142,-3.8133,-3.8215,-3.8215,-3.8215,-3.8215,-3.8215,-3.8215,-3.8087,-3.8118,-3.8115,-3.8149,-3.8151,-3.8173,-3.818,-3.8188,-3.8193,-3.8219,-3.8234,-3.8233,-3.8236,-3.8252,-3.8267,-3.8266,-3.8271,-3.8286,-3.8282,-3.8221,-3.8212,-3.8203,-3.8195,-3.8288,-3.8288,-3.8345,-3.8346,-3.8346]},{"header":{"parameterUnit":"m.s-1","parameterCategory":1,"la1":30.2991,"la2":30.254,"lo1":-89.0895,"lo2":-89.0444,"dy":0.0017,"dx":0.0017,"nx":28,"ny":28,"refTime":"2025-04-23T09:00:00:Z","depth":0,"parameterNumber":3,"parameterNumberName":"V-component_of_WINDS"},"data":[0,0,0,0,0,0,0,0,0,0,0,0,0,0,0,0,0,0,0,0,0,0,0,0,0,0,0,0,0,0,0,0,0,0,0,0,0,0,0,0,0,0,0,0,0,0,0,0,0,0,0,0,0,0,0,0,0,0,2.1598,2.1597,0,2.1548,2.1547,2.1547,2.1567,2.1568,2.1569,2.157,2.1512,2.1509,2.1506,0,0,0,0,0,0,0,0,0,0,0,0,0,2.1707,2.1705,2.1598,2.1597,2.1597,2.1548,2.1547,2.1546,2.1567,2.1568,2.1569,2.1571,2.1512,2.1509,2.1506,0,0,0,0,0,0,0,0,0,0,0,0,0,2.1658,2.1704,2.1598,2.1601,2.1601,2.1548,2.1547,2.1546,2.1566,2.1568,2.157,2.1572,2.1514,2.151,2.1506,2.1445,0,0,2.1493,2.1492,0,0,0,0,0,0,0,0,2.1661,2.1654,2.1601,2.1601,2.16,2.1566,2.1564,2.1512,2.1566,2.1579,2.157,2.1572,2.1528,2.1523,2.1509,2.1442,2.1439,2.1493,2.1491,2.1489,2.1488,0,0,0,0,0,0,0,2.1664,2.1656,2.1578,2.16,2.16,2.1603,2.1598,2.1554,2.1544,2.1578,2.1579,2.1574,2.1528,2.1513,2.1508,2.1439,2.1493,2.149,2.1487,2.1485,2.1322,2.132,0,0,0,0,0,0,2.1668,2.1659,2.1579,2.1576,2.1636,2.16,2.1595,2.1575,2.1544,2.1541,2.1572,2.1575,2.1519,2.1512,2.1506,2.1434,2.1489,2.1485,2.1483,2.1324,2.1321,2.1319,0,0,0,0,0,0,2.1671,2.1661,2.1582,2.1618,2.1608,2.1596,2.1574,2.1573,2.1558,2.154,2.1537,2.1559,2.152,2.1511,2.1461,2.1432,2.1483,2.148,2.1326,2.1323,2.132,2.1289,0,0,0,0,0,0,2.1674,2.1662,2.1639,2.1618,2.1606,2.1539,2.1572,2.1571,2.1552,2.1555,2.1527,2.1524,2.1521,2.1467,2.1457,2.1428,2.1476,2.1329,2.1325,2.1321,2.1293,2.1286,2.128,0,0,0,0,0,2.1677,2.163,2.1638,2.1628,2.1578,2.1537,2.153,2.153,2.1549,2.1526,2.1515,2.1525,2.1437,2.1461,2.145,2.142,2.133,2.1326,2.1322,2.1296,2.1287,2.128,0,0,0,0,0,0,2.1645,2.1627,2.1636,2.1581,2.1561,2.1541,2.1511,2.152,2.1492,2.1495,2.1494,2.1487,2.1436,2.1422,2.145,2.136,2.1387,2.138,2.1371,2.1362,2.1356,2.136,2.1473,0,0,0,0,0,2.1633,2.1603,2.1588,2.154,2.153,2.1523,2.1504,2.1506,2.1484,2.1475,2.146,2.1437,2.1405,2.1383,2.1351,2.1292,2.1286,2.1265,2.1258,2.1253,2.1247,2.1216,2.1207,2.1305,2.1305,2.1305,0,0,2.1604,2.1591,2.1571,2.1534,2.1518,2.1486,2.1515,2.1479,2.1455,2.1469,2.1421,2.141,2.1384,2.1329,2.1304,2.1316,2.1219,2.1248,2.1244,2.124,2.1211,2.1202,2.1193,2.1302,2.1303,2.1303,0,0,2.1537,2.1524,2.1484,2.147,2.1448,2.1443,2.1434,2.1413,2.1407,2.136,2.1371,2.1342,2.1285,2.1267,2.125,2.118,2.1189,2.117,2.1135,2.1105,2.1098,2.1091,2.1067,2.1058,2.1164,2.1164,2.1164,0,2.1504,2.1458,2.1462,2.1427,2.141,2.1425,2.1385,2.1369,2.1337,2.1324,2.134,2.1272,2.1255,2.1197,2.1181,2.1166,2.1155,2.1173,2.1099,2.1092,2.1086,2.1063,2.1053,2.1162,2.1162,2.1162,2.1163,0,2.142,2.1388,2.1358,2.1331,2.1311,2.1272,2.127,2.1249,2.1253,2.1247,2.12,2.1181,2.1148,2.1134,2.1136,2.1077,2.1086,2.11,2.1126,2.1074,2.1053,2.1044,2.1159,2.116,2.116,2.1161,0,0,2.1328,2.1307,2.1296,2.1285,2.1263,2.1237,2.12,2.1171,2.1154,2.1131,2.11,2.1054,2.1068,2.105,2.105,2.1024,2.0971,2.1041,2.1041,2.1029,2.0907,2.0897,2.0887,2.0977,2.0976,2.0974,2.0909,0,2.126,2.1198,2.1202,2.1143,2.1114,2.113,2.1098,2.108,2.1075,2.1048,2.1041,2.1009,2.1029,2.1018,2.0993,2.0983,2.0947,2.0988,2.0948,2.0946,2.0954,2.0875,2.0864,2.0803,2.0901,2.0899,2.0898,0,2.1171,2.1151,2.109,2.1076,2.1064,2.1035,2.101,2.0985,2.0966,2.0963,2.0945,2.095,2.0912,2.0941,2.0889,2.0917,2.0901,2.0894,2.0891,2.0887,2.0919,2.0869,2.0783,2.0775,2.0885,2.0886,2.0887,0,2.1112,2.1068,2.1028,2.1017,2.0999,2.0979,2.097,2.0954,2.0937,2.0914,2.0903,2.0875,2.0859,2.0837,2.0835,2.0856,2.0783,2.0811,2.078,2.078,2.0763,2.0764,2.0674,2.0752,2.0752,2.0752,2.0753,0,2.1036,2.0998,2.1001,2.0976,2.0935,2.0939,2.0898,2.0891,2.0876,2.0849,2.086,2.0834,2.0833,2.0806,2.0804,2.0762,2.0754,2.0751,2.0751,2.075,2.0751,2.0739,2.0743,2.075,2.0751,2.0751,2.0751,0,2.0962,2.0963,2.0919,2.0907,2.0904,2.0874,2.0863,2.0838,2.0835,2.0801,2.0793,2.0786,2.0756,2.0752,2.0715,2.0714,2.0664,2.0668,2.0671,2.0672,2.0641,2.0645,2.0541,2.0528,2.0614,2.0613,2.0613,0,2.0913,2.0885,2.0872,2.0856,2.0847,2.0821,2.0805,2.0809,2.0792,2.077,2.0748,2.072,2.0697,2.0647,2.0638,2.061,2.0614,2.058,2.0609,2.0611,2.0614,2.0616,2.0614,2.0573,2.0572,2.0572,2.0571,0,2.0827,2.083,2.0807,2.0786,2.0768,2.075,2.0733,2.0719,2.0721,2.0701,2.0672,2.0655,2.0619,2.059,2.0564,2.0553,2.0562,2.0562,2.0554,2.0552,2.0556,2.0555,2.0656,2.0564,2.0565,2.0565,2.0566,2.0566,2.0765,2.0742,2.073,2.0705,2.0695,2.068,2.0657,2.0653,2.0629,2.0603,2.0606,2.0574,2.0558,2.0524,2.0512,2.0486,2.0497,2.0484,2.0481,2.0478,2.0476,2.0561,2.0481,2.0481,2.0481,2.0481,2.0481,0,2.068,2.0674,2.0652,2.0631,2.0612,2.0625,2.0609,2.0591,2.0564,2.0549,2.0528,2.0495,2.0468,2.0459,2.0432,2.0413,2.0417,2.0406,2.0408,2.0405,2.0466,2.0477,2.0404,2.0404,2.0404,2.0404,2.0404,2.0404,2.0634,2.0596,2.0598,2.0556,2.055,2.0521,2.051,2.0497,2.0486,2.045,2.0429,2.0424,2.0411,2.0385,2.0361,2.0359,2.0349,2.0336,2.0336,2.0393,2.0401,2.0408,2.0418,2.0334,2.0334,2.0277,2.0277,2.0276]}]]